[[{"header":{"parameterUnit":"m.s-1","parameterCategory":1,"la1":30.2992,"la2":30.254,"lo1":-89.0895,"lo2":-89.0443,"dy":0.0025,"dx":0.0025,"nx":19,"ny":19,"refTime":"2026-04-12T21:00:00:Z","depth":0,"parameterNumber":2,"parameterNumberName":"U-component_of_WINDS"},"data":[0,0,0,-2.1279,-2.1282,-2.1471,-2.1472,-2.1698,-2.17,0,0,0,0,0,0,0,0,0,0,0,-2.1212,-2.1213,-2.1278,-2.1283,-2.1471,-2.1472,-2.1698,-2.17,0,0,0,0,0,0,0,0,0,0,0,-2.1212,-2.1213,-2.1214,-2.1283,-2.147,-2.1472,-2.1697,-2.1561,0,0,0,0,0,0,0,0,0,0,-2.1381,-2.1308,-2.1213,-2.1214,-2.1284,-2.147,-2.1472,-2.1554,-2.1569,-2.1606,0,-2.1634,0,-2.167,-2.1714,-2.1715,0,0,0,-2.1291,-2.1296,-2.1356,-2.1215,-2.1286,-2.147,-2.1388,-2.1563,-2.158,-2.1625,-2.1637,-2.1646,-2.1674,-2.1715,-2.1716,-2.1895,-2.1896,0,0,-2.1281,-2.1241,-2.1344,-2.1366,-2.1334,-2.1382,-2.1394,-2.1573,-2.1584,-2.1638,-2.1652,-2.1678,-2.1717,-2.1718,-2.1895,-2.1895,0,0,0,-2.1245,-2.1233,-2.1289,-2.1357,-2.1391,-2.1387,-2.1401,-2.1576,-2.1598,-2.1654,-2.168,-2.1718,-2.172,-2.1894,-2.1895,-2.1876,0,0,0,-2.1239,-2.1212,-2.1284,-2.1262,-2.1388,-2.1486,-2.1399,-2.1585,-2.1607,-2.1679,-2.1718,-2.1722,-2.1894,-2.1895,-2.1875,-2.1873,0,0,0,-2.1204,-2.1208,-2.1232,-2.1259,-2.1338,-2.1484,-2.1516,-2.1591,-2.1623,-2.1715,-2.1723,-2.1894,-2.1895,-2.1875,-2.1873,-2.1908,0,0,0,-2.1154,-2.1213,-2.1231,-2.1307,-2.1336,-2.147,-2.1515,-2.1618,-2.1695,-2.1719,-2.1894,-2.1895,-2.1875,-2.1872,-2.1907,-2.1928,-2.1934,0,0,-2.1206,-2.1217,-2.1266,-2.1287,-2.1407,-2.1445,-2.1564,-2.1673,-2.172,-2.1835,-2.184,-2.1875,-2.1873,-2.1907,-2.1982,-2.1985,0,0,0,-2.1268,-2.1302,-2.1343,-2.1413,-2.1498,-2.157,-2.1666,-2.1707,-2.1806,-2.177,-2.19,-2.1899,-2.1922,-2.1934,-2.1937,-2.1959,-2.1899,-2.1899,-2.1899,-2.1282,-2.1338,-2.1421,-2.15,-2.1568,-2.1667,-2.1728,-2.18,-2.1838,-2.1868,-2.1901,-2.1939,-2.1952,-2.1955,-2.1976,-2.1919,-2.1919,-2.1919,-2.1919,-2.1362,-2.1418,-2.1467,-2.1564,-2.1624,-2.1708,-2.1806,-2.183,-2.1918,-2.1918,-2.1941,-2.1934,-2.1957,-2.1979,-2.1918,-2.1918,-2.1918,-2.1918,-2.1918,-2.1375,-2.1412,-2.1461,-2.1569,-2.1647,-2.1726,-2.1808,-2.1861,-2.1911,-2.1933,-2.1974,-2.1975,-2.1981,-2.1949,-2.1949,-2.195,-2.195,-2.195,-2.195,-2.137,-2.1425,-2.1486,-2.1581,-2.1634,-2.171,-2.1812,-2.1866,-2.1939,-2.1971,-2.1972,-2.2006,-2.1949,-2.1933,-2.1952,-2.1952,-2.1951,-2.1951,-2.1951,-2.1427,-2.1422,-2.1516,-2.1569,-2.1686,-2.176,-2.1827,-2.1933,-2.1986,-2.2024,-2.2055,-2.2005,-2.2021,-2.2019,-2.2006,-2.2043,-2.2043,-2.2043,-2.2043,-2.1437,-2.1451,-2.1559,-2.164,-2.1725,-2.1795,-2.1902,-2.1982,-2.2065,-2.2102,-2.2105,-2.2092,-2.2088,-2.2107,-2.2103,-2.2091,-2.2149,-2.2149,-2.2149,-2.1475,-2.1499,-2.1578,-2.1657,-2.1753,-2.1835,-2.1937,-2.203,-2.2123,-2.2155,-2.2131,-2.2127,-2.2108,-2.2099,-2.2127,-2.2119,-2.2099,0,0]},{"header":{"parameterUnit":"m.s-1","parameterCategory":1,"la1":30.2992,"la2":30.254,"lo1":-89.0895,"lo2":-89.0443,"dy":0.0025,"dx":0.0025,"nx":19,"ny":19,"refTime":"2026-04-12T21:00:00:Z","depth":0,"parameterNumber":3,"parameterNumberName":"V-component_of_WINDS"},"data":[0,0,0,3.129,3.1292,3.138,3.138,3.1487,3.1488,0,0,0,0,0,0,0,0,0,0,0,3.1263,3.1264,3.129,3.1292,3.138,3.138,3.1486,3.1488,0,0,0,0,0,0,0,0,0,0,0,3.1263,3.1264,3.1265,3.1292,3.138,3.138,3.1486,3.1421,0,0,0,0,0,0,0,0,0,0,3.1337,3.1312,3.1263,3.1265,3.1293,3.1379,3.138,3.1418,3.1425,3.1445,0,3.1465,0,3.1478,3.1495,3.1495,0,0,0,3.1292,3.1306,3.1331,3.1265,3.1294,3.1379,3.134,3.1422,3.143,3.1455,3.1467,3.1471,3.148,3.1495,3.1496,3.1618,3.1619,0,0,3.1287,3.1278,3.1325,3.1336,3.1325,3.1337,3.1343,3.1427,3.1438,3.1467,3.1473,3.1482,3.1496,3.1497,3.1618,3.1619,0,0,0,3.1273,3.1274,3.1297,3.1332,3.1348,3.134,3.1346,3.1435,3.1443,3.1474,3.1483,3.1497,3.1498,3.1617,3.1618,3.1639,0,0,0,3.127,3.1266,3.1295,3.129,3.1346,3.1393,3.1352,3.1437,3.1447,3.1483,3.1497,3.1499,3.1617,3.1618,3.1637,3.165,0,0,0,3.1257,3.1265,3.1278,3.1289,3.1327,3.1392,3.1405,3.144,3.1452,3.1495,3.1499,3.1616,3.1618,3.1636,3.1647,3.168,0,0,0,3.124,3.1293,3.1278,3.134,3.1327,3.1405,3.1405,3.1463,3.1502,3.1497,3.1617,3.1618,3.1635,3.1646,3.1679,3.1707,3.1718,0,0,3.1302,3.13,3.1338,3.1326,3.1406,3.1393,3.1475,3.1517,3.1528,3.1587,3.159,3.1638,3.1647,3.168,3.1783,3.1792,0,0,0,3.1354,3.1381,3.1404,3.1442,3.1478,3.151,3.1542,3.1558,3.1609,3.1558,3.1659,3.1665,3.1684,3.1698,3.1706,3.1723,3.1624,3.1624,3.1624,3.1426,3.144,3.1503,3.1528,3.1565,3.1598,3.1629,3.1656,3.1656,3.168,3.1697,3.1759,3.1774,3.178,3.1798,3.1714,3.1714,3.1714,3.1714,3.1517,3.1557,3.156,3.1622,3.1635,3.1686,3.172,3.172,3.1768,3.1746,3.1764,3.1739,3.1789,3.1805,3.1716,3.1715,3.1715,3.1715,3.1715,3.1566,3.1587,3.1608,3.1666,3.1709,3.1731,3.1778,3.1788,3.1797,3.1815,3.1834,3.1834,3.1835,3.1824,3.1824,3.1824,3.1824,3.1824,3.1825,3.1608,3.1631,3.1671,3.1715,3.1742,3.1778,3.1813,3.1838,3.1868,3.1872,3.1872,3.187,3.1792,3.1772,3.1828,3.1827,3.1827,3.1827,3.1826,3.1694,3.1677,3.1739,3.1766,3.1819,3.1861,3.1873,3.1925,3.1947,3.197,3.1965,3.1906,3.1904,3.1898,3.1882,3.1962,3.1962,3.1962,3.1962,3.1735,3.1737,3.1803,3.1845,3.1888,3.1906,3.1974,3.2001,3.2026,3.2041,3.2031,3.201,3.2003,3.2005,3.1997,3.1982,3.2086,3.2086,3.2086,3.1789,3.1795,3.1852,3.188,3.1922,3.1957,3.2021,3.2068,3.2092,3.2091,3.2052,3.2047,3.2013,3.2002,3.1999,3.1986,3.1958,0,0]}]]